Weather History for Wenatchee, WA

Change the Weather History Date:

Monday, February 4, 2013

  Actual Average Record
Temperature  
Mean Temperature 32 °F 30 °F  
Max Temperature 37 °F 36 °F 58 °F (1967)
Min Temperature 26 °F 23 °F -2 °F (1985)
Degree Days  
Heating Degree Days 33 35  
Month to date heating degree days 141 140  
Since 1 July heating degree days 4084 4397  
Cooling Degree Days 0 0  
Month to date cooling degree days 0 0  
Year to date cooling degree days 0 0  
Moisture  
Dew Point 28 °F    
Average Humidity 94    
Maximum Humidity 100    
Minimum Humidity 85    
Precipitation  
Precipitation 0.00 in 0.06 in 0.34 in (1975)
Month to date precipitation 0.00 0.22  
Year to date precipitation 1.46 2.09  
Snow  
Snow 0.00 in 0.30 in - ()
Month to date snowfall 0.0 1.3  
Since 1 July snowfall 43.8 41.7  
Snow Depth 4.00 in    
Sea Level Pressure  
Sea Level Pressure 30.07 in    
Wind  
Wind Speed 3 mph (ESE)    
Max Wind Speed 10 mph    
Max Gust Speed -    
Visibility 2 miles    
Events Fog , Rain    
T = Trace of Precipitation, MM = Missing Value Source: NWS Daily Summary

Daily Weather History Graph

Daily Weather History Graph

Search for Another Location

Airport:

Trip Planner

Search our weather history database for the weather conditions in past years. The results will help you decide how hot, cold, wet, or windy it might be!

Date:

Astronomy

Feb. 04, 2013 Rise Set
Actual Time 7:22 AM PST 5:07 PM PST
Civil Twilight 6:49 AM PST 5:40 PM PST
Nautical Twilight 6:13 AM PST 6:17 PM PST
Astronomical Twilight 5:37 AM PST 6:52 PM PST
Moon 2:09 AM PST (2/4) 11:29 AM PST (2/4)
Length of Visible Light 10h 50m
Length of Day
9h 45m
Last Quarter, 36% of the Moon is Illuminated
Feb 4
Last Quarter
Feb 9
New
Feb 17
First Quarter
Feb 25
Full
Mar 4
Last Quarter

Hourly Weather History & Observations

Time (PST) Temp. Windchill Dew Point Humidity Pressure Visibility Wind Dir Wind Speed Gust Speed Precip Events Conditions
12:55 AM 30.0 °F - 28.0 °F 92% 30.16 in 4.0 mi Calm Calm - N/A   Overcast
1:15 AM 30.2 °F - 26.6 °F 86% 30.11 in 4.0 mi Calm Calm - N/A   Overcast
1:24 AM 30.2 °F 26.7 °F 26.6 °F 86% 30.10 in 3.0 mi East 3.5 mph - N/A   Overcast
2:55 AM 30.0 °F - 28.0 °F 92% 30.15 in 3.0 mi Calm Calm - N/A   Overcast
3:02 AM 30.2 °F 26.7 °F 28.4 °F 93% 30.12 in 2.5 mi SSW 3.5 mph - N/A   Overcast
3:47 AM 30.2 °F - 28.4 °F 93% 30.11 in 3.0 mi Calm Calm - N/A   Overcast
3:55 AM 30.0 °F 26.5 °F 28.0 °F 92% 30.15 in 3.0 mi NNE 3.5 mph - N/A   Mostly Cloudy
4:55 AM 30.9 °F 26.2 °F 27.0 °F 85% 30.14 in 5.0 mi SSE 4.6 mph - N/A   Scattered Clouds
5:33 AM 28.4 °F 24.6 °F 26.6 °F 93% 30.10 in 1.5 mi East 3.5 mph - N/A   Partly Cloudy
5:35 AM 28.4 °F - 24.8 °F 86% 30.10 in 0.8 mi Calm Calm - N/A   Mist
5:44 AM 26.6 °F 21.2 °F 24.8 °F 93% 30.10 in 0.2 mi ENE 4.6 mph - N/A Fog Light Freezing Fog
5:55 AM 26.1 °F 20.5 °F 25.0 °F 96% 30.13 in 0.2 mi East 4.6 mph - N/A Fog Light Freezing Fog
6:05 AM 28.4 °F 24.6 °F 26.6 °F 93% 30.09 in 1.0 mi East 3.5 mph - N/A   Mist
6:20 AM 28.4 °F 23.3 °F 26.6 °F 93% 30.09 in 3.0 mi ENE 4.6 mph - N/A   Partly Cloudy
6:55 AM 28.0 °F 24.2 °F 26.1 °F 92% 30.14 in 5.0 mi East 3.5 mph - N/A   Clear
7:10 AM 28.4 °F 24.6 °F 26.6 °F 93% 30.10 in 2.0 mi East 3.5 mph - N/A   Partly Cloudy
7:15 AM 28.4 °F 24.6 °F 26.6 °F 93% 30.10 in 1.0 mi East 3.5 mph - N/A   Mist
7:26 AM 28.4 °F - 26.6 °F 93% 30.11 in 2.0 mi Calm Calm - N/A   Scattered Clouds
7:53 AM 28.4 °F 23.3 °F 26.6 °F 93% 30.10 in 3.0 mi East 4.6 mph - N/A   Mostly Cloudy
7:55 AM 28.0 °F 22.8 °F 26.1 °F 92% 30.14 in 3.0 mi East 4.6 mph - N/A   Mostly Cloudy
8:16 AM 30.2 °F - 26.6 °F 86% 30.10 in 2.5 mi Calm Calm - N/A   Overcast
8:25 AM 30.2 °F 25.4 °F 28.4 °F 93% 30.10 in 3.0 mi East 4.6 mph - N/A   Overcast
8:32 AM 30.2 °F - 28.4 °F 93% 30.10 in 0.8 mi Calm Calm - N/A   Overcast
8:40 AM 28.4 °F - 26.6 °F 93% 30.11 in 0.2 mi Calm Calm - N/A Fog Light Freezing Fog
8:55 AM 30.0 °F 24.1 °F 28.0 °F 92% 30.15 in 0.2 mi SSW 5.8 mph - N/A Fog Light Freezing Fog
9:03 AM 28.4 °F 23.3 °F 26.6 °F 93% 30.11 in 0.2 mi SSE 4.6 mph - N/A Fog Light Freezing Fog
9:12 AM 28.4 °F 22.2 °F 26.6 °F 93% 30.11 in 0.2 mi SE 5.8 mph - N/A Fog Light Freezing Fog
9:55 AM 30.0 °F 24.1 °F 28.0 °F 92% 30.15 in 0.2 mi East 5.8 mph - N/A Fog Light Freezing Fog
10:55 AM 30.0 °F 21.1 °F 28.0 °F 92% 30.15 in 0.2 mi East 10.4 mph - N/A Fog Light Freezing Fog
11:36 AM 30.2 °F 21.9 °F 28.4 °F 93% 30.10 in 0.5 mi East 9.2 mph - N/A Fog Light Freezing Fog
11:55 AM 30.9 °F 22.8 °F 28.9 °F 92% 30.14 in 1.0 mi East 9.2 mph - N/A   Mist
12:09 PM 30.2 °F 21.9 °F 28.4 °F 93% 30.09 in 2.5 mi East 9.2 mph - N/A   Overcast
12:17 PM 30.2 °F 21.9 °F 28.4 °F 93% 30.09 in 3.0 mi East 9.2 mph - N/A   Overcast
12:37 PM 32.0 °F 25.6 °F 30.2 °F 93% 30.08 in 4.0 mi East 6.9 mph - N/A   Scattered Clouds
12:55 PM 32.0 °F 24.2 °F 30.0 °F 92% 30.11 in 4.0 mi East 9.2 mph - N/A   Scattered Clouds
1:55 PM 33.1 °F 27.7 °F 30.0 °F 89% 30.09 in 10.0 mi East 5.8 mph - N/A   Clear
2:55 PM 32.0 °F 24.8 °F 30.0 °F 92% 30.08 in 8.0 mi East 8.1 mph - N/A   Clear
3:55 PM 32.0 °F 24.8 °F 30.0 °F 92% 30.06 in 5.0 mi East 8.1 mph - N/A   Scattered Clouds
4:06 PM 32.0 °F 24.2 °F 30.2 °F 93% 30.03 in 4.0 mi East 9.2 mph - N/A   Mostly Cloudy
4:52 PM 32.0 °F 27.5 °F 30.2 °F 93% 30.01 in 2.0 mi East 4.6 mph - N/A   Overcast
5:06 PM 30.2 °F 24.3 °F 30.2 °F 100% 30.01 in 0.2 mi East 5.8 mph - N/A Fog Light Freezing Fog
5:22 PM 30.2 °F 22.6 °F 30.2 °F 100% 30.02 in 0.5 mi East 8.1 mph - N/A Fog Light Freezing Fog
5:43 PM 30.2 °F 22.6 °F 30.2 °F 100% 30.02 in 0.2 mi East 8.1 mph - N/A Fog Light Freezing Fog
5:55 PM 30.9 °F 25.2 °F 30.0 °F 96% 30.06 in 0.2 mi ESE 5.8 mph - N/A Fog Light Freezing Fog
6:55 PM 30.9 °F 23.5 °F 28.9 °F 92% 30.06 in 0.2 mi East 8.1 mph - N/A Fog Light Freezing Fog
7:55 PM 30.9 °F 27.5 °F 30.0 °F 96% 30.05 in 0.2 mi SE 3.5 mph - N/A Fog Light Freezing Fog
8:55 PM 30.9 °F 27.5 °F 30.0 °F 96% 30.02 in 0.2 mi SSE 3.5 mph - N/A Fog Light Freezing Fog
9:44 PM 30.2 °F - 30.2 °F 100% 29.98 in 0.2 mi Calm Calm - 0.00 in Fog Light Freezing Fog
9:49 PM 30.2 °F - 30.2 °F 100% 29.98 in 0.2 mi Calm Calm - 0.00 in Fog Light Freezing Fog
9:55 PM 30.9 °F - 30.0 °F 96% 30.02 in 0.5 mi Calm Calm - 0.00 in Fog Light Freezing Fog
10:04 PM 30.2 °F - 28.4 °F 93% 29.98 in 0.5 mi Calm Calm - 0.00 in Fog , Rain Light Freezing Rain
10:31 PM 30.2 °F 23.4 °F 28.4 °F 93% 29.95 in 0.2 mi SW 6.9 mph - 0.01 in Fog , Rain Light Freezing Rain
10:46 PM 30.2 °F - 28.4 °F 93% 29.96 in 0.2 mi Calm Calm - 0.01 in Fog , Rain Light Freezing Rain
10:51 PM 30.2 °F - 30.2 °F 100% 29.96 in 0.2 mi Calm Calm - 0.01 in Fog Light Freezing Fog
10:55 PM 30.9 °F 27.5 °F 30.0 °F 96% 29.99 in 0.2 mi NE 3.5 mph - 0.01 in Fog Light Freezing Fog
11:15 PM 30.2 °F - 30.2 °F 100% 29.95 in 0.8 mi Calm Calm - N/A   Mist
11:23 PM 30.2 °F - 30.2 °F 100% 29.95 in 1.5 mi Calm Calm - N/A   Mostly Cloudy
11:34 PM 30.2 °F - 30.2 °F 100% 29.95 in 2.0 mi Calm Calm - N/A   Mostly Cloudy
11:41 PM 30.2 °F 26.7 °F 30.2 °F 100% 29.95 in 1.8 mi SSW 3.5 mph - N/A   Scattered Clouds
11:46 PM 30.2 °F 26.7 °F 28.4 °F 93% 29.95 in 0.8 mi SW 3.5 mph - N/A   Mist
11:53 PM 30.2 °F 25.4 °F 28.4 °F 93% 29.95 in 0.5 mi SW 4.6 mph - N/A Fog Light Freezing Fog
11:55 PM 30.9 °F 27.5 °F 28.9 °F 92% 29.99 in 0.5 mi SW 3.5 mph - N/A Fog Light Freezing Fog